Regional Weather Roundup
Issued by NWS

Home | Current Version | Previous Version | Text Only | Print | Product List | Glossary Off
Versions: 1 2 3 4 5 6 7 8 9 10 11 12 13 14 15 16 17 18 19 20 21 22 23 24 25 26 27 28 29 30 31 32 33 34 35 36 37 38 39 40 41 42 43 44 45 46 47 48 49 50

000
ASUS43 KOAX 041502
RWRNE

WEATHER ROUNDUP FOR NEBRASKA
NATIONAL WEATHER SERVICE OMAHA NE
1000 AM CDT WED MAY 04 2016

NOTES: SATELLITE DATA IS BEING USED TO AUGMENT CLOUD COVER ABOVE
       12000 FEET.
       "FAIR" INDICATES FEW OR NO CLOUDS BELOW 12,000 FEET WITH NO
       SIGNIFICANT WEATHER AND/OR OBSTRUCTIONS TO VISIBILITY.

  * THESE STATIONS DO NOT REPORT WEATHER SUCH AS RAIN...SNOW OR FOG.

NEZ001>004-019>022-054>056-041600-
NEBRASKA PANHANDLE

CITY           SKY/WX    TMP DP  RH WIND       PRES   REMARKS
SCOTTSBLUFF    SUNNY     57  43  59 NW9       30.21F
ALLIANCE       SUNNY     60  43  53 N6        30.20S
CHADRON        SUNNY     58  44  60 SW3       30.19S
KIMBALL        SUNNY     60  44  55 W5        30.24S
SIDNEY         SUNNY     60  45  57 NW9       30.22S
$$

NEZ057>060-069>072-079>082-041600-
SOUTHWEST NEBRASKA

CITY           SKY/WX    TMP DP  RH WIND       PRES   REMARKS
NORTH PLATTE   SUNNY     59  44  57 W5        30.16S
IMPERIAL       SUNNY     62  43  49 N10       30.19R
LEXINGTON      SUNNY     59  38  46 N10       30.14S
MCCOOK         SUNNY     62  42  47 CALM      30.16S
$$

NEZ005>010-023>029-035>040-094-041600-
NORTH CENTRAL NEBRASKA

CITY           SKY/WX    TMP DP  RH WIND       PRES   REMARKS
VALENTINE      SUNNY     59  31  34 W3        30.16S
AINSWORTH      SUNNY     58  33  38 NW7       30.15F
BROKEN BOW     SUNNY     59  34  39 N14       30.13F
ORD            SUNNY     58  37  45 NW12      30.12R
$$

NEZ041-046>049-061>064-073>077-083>087-041600-
SOUTH CENTRAL NEBRASKA

CITY           SKY/WX    TMP DP  RH WIND       PRES   REMARKS
GRAND ISLAND   SUNNY     58  37  45 N13       30.12R
AURORA         SUNNY     59  35  41 N14       30.11R
HASTINGS       SUNNY     58  38  47 N13       30.11R
KEARNEY *      SUNNY     57  36  44 N13       30.13F
YORK           SUNNY     57  39  51 N14G23    30.10R
$$

NEZ011>018-030>034-042>045-041600-
NORTHEAST NEBRASKA

CITY           SKY/WX    TMP DP  RH WIND       PRES   REMARKS
NORFOLK        SUNNY     55  37  50 N10       30.09S
ALBION         SUNNY     56  38  50 N12       30.11R
BLAIR          SUNNY     56  40  53 N10G17    30.05R
COLUMBUS *     SUNNY     57  36  44 N13       30.10R
FREMONT        SUNNY     56  38  51 N8        30.07S
TEKAMAH        SUNNY     56  40  55 N12       30.06R
$$

NEZ050>053-065>068-078-088>093-041600-
SOUTHEAST NEBRASKA

CITY           SKY/WX    TMP DP  RH WIND       PRES   REMARKS
LINCOLN        SUNNY     60  37  42 N14       30.08R
OMAHA EPPLEY   SUNNY     57  40  52 N12       30.05R
BEATRICE       SUNNY     58  39  49 N15       30.06R
FALLS CITY     SUNNY     60  40  47 N14G22    30.01R
$$

NEZ044-045-051>053-067-041600-
OMAHA AREA

CITY           SKY/WX    TMP DP  RH WIND       PRES   REMARKS
OMAHA EPPLEY   SUNNY     57  40  52 N12       30.05R
BLAIR          SUNNY     56  40  53 N10G17    30.05R
FREMONT        SUNNY     56  38  51 N8        30.07S
OFFUTT AFB     SUNNY     56  38  50 N9        30.04R
$$




USA.gov is the U.S. government's official web portal to all federal, state and local government web resources and services.